QPF
0.03 0.05 0.08 0.06 0.05 0.04 0.04 0.04 0.03 0.03 0.05 0.05 0.05 0.05 0.05 0.05 0.04 0.04 0.03 0.03 0.03 0.03 0.04 0.04 0.04 0.04 0.04 0.05 0.06 0.07 0.06 0.07 0.09 0.08 0.05 0.03 0.06 0.06 0.04 0.03 0.02 0.01 0.03
0.03 0.04 0.05 0.05 0.03 0.03 0.03 0.03 0.03 0.04 0.05 0.05 0.05 0.05 0.05 0.05 0.04 0.03 0.02 0.03 0.03 0.03 0.04 0.05 0.05 0.04 0.04 0.05 0.06 0.07 0.05 0.06 0.07 0.07 0.05 0.05 0.08 0.06 0.03 0.02 0.02 0.02 0.03
0.03 0.03 0.03 0.03 0.02 0.02 0.02 0.02 0.03 0.04 0.05 0.05 0.04 0.04 0.04 0.04 0.03 0.02 0.02 0.02 0.02 0.02 0.02 0.03 0.03 0.03 0.05 0.06 0.06 0.06 0.05 0.07 0.08 0.07 0.03 0.02 0.05 0.05 0.03 0.02 0.02 0.02 0.03
0.02 0.02 0.01 0.02 0.02 0.02 0.02 0.02 0.03 0.04 0.04 0.04 0.03 0.03 0.03 0.03 0.03 0.02 0.02 0.02 0.02 0.02 0.02 0.02 0.03 0.05 0.06 0.05 0.07 0.07 0.05 0.07 0.10 0.07 0.01 0.01 0.02 0.04 0.04 0.03 0.02 0.03 0.05
0.02 0.01 0.01 0.02 0.02 0.01 0.01 0.02 0.02 0.03 0.03 0.03 0.02 0.02 0.02 0.02 0.03 0.04 0.02 0.02 0.02 0.02 0.02 0.03 0.04 0.05 0.06 0.05 0.05 0.06 0.08 0.08 0.09 0.03 0.01 0.00 0.01 0.03 0.03 0.03 0.03 0.03 0.03
0.02 0.01 0.01 0.02 0.01 0.01 0.01 0.01 0.01 0.02 0.02 0.02 0.02 0.02 0.02 0.03 0.03 0.04 0.01 0.02 0.02 0.02 0.02 0.02 0.04 0.06 0.05 0.04 0.05 0.06 0.08 0.08 0.03 0.01 0.01 0.00 0.00 0.02 0.03 0.03 0.02 0.02 0.02
0.01 0.01 0.01 0.03 0.02 0.02 0.03 0.03 0.02 0.02 0.03 0.03 0.03 0.02 0.02 0.03 0.03 0.03 0.01 0.02 0.02 0.03 0.02 0.03 0.04 0.05 0.05 0.05 0.04 0.05 0.06 0.05 0.02 0.01 0.01 0.00 0.00 0.02 0.03 0.03 0.03 0.02 0.02
0.02 0.01 0.01 0.02 0.02 0.01 0.03 0.03 0.03 0.02 0.03 0.04 0.04 0.03 0.03 0.04 0.06 0.04 0.02 0.03 0.03 0.04 0.03 0.04 0.05 0.05 0.05 0.06 0.06 0.06 0.06 0.05 0.03 0.01 0.02 0.01 0.01 0.02 0.02 0.02 0.02 0.02 0.02
0.01 0.01 0.01 0.01 0.02 0.03 0.02 0.03 0.03 0.03 0.04 0.04 0.04 0.04 0.05 0.04 0.04 0.03 0.03 0.05 0.05 0.05 0.05 0.06 0.05 0.04 0.04 0.06 0.08 0.07 0.05 0.05 0.03 0.01 0.02 0.01 0.01 0.02 0.02 0.02 0.02 0.02 0.02
0.01 0.01 0.01 0.01 0.01 0.02 0.03 0.03 0.02 0.02 0.04 0.05 0.06 0.05 0.05 0.04 0.02 0.04 0.04 0.06 0.07 0.06 0.06 0.07 0.06 0.03 0.04 0.07 0.08 0.07 0.05 0.05 0.02 0.01 0.01 0.02 0.01 0.01 0.02 0.02 0.02 0.02 0.01
0.01 0.01 0.01 0.01 0.01 0.01 0.02 0.02 0.03 0.02 0.03 0.04 0.06 0.06 0.04 0.02 0.01 0.02 0.04 0.04 0.05 0.08 0.06 0.06 0.05 0.03 0.04 0.06 0.08 0.07 0.04 0.02 0.02 0.02 0.02 0.01 0.02 0.02 0.02 0.02 0.02 0.01 0.02
0.01 0.00 0.00 0.01 0.01 0.01 0.01 0.02 0.02 0.01 0.01 0.01 0.02 0.03 0.02 0.01 0.01 0.02 0.04 0.05 0.05 0.08 0.08 0.07 0.05 0.04 0.03 0.04 0.06 0.04 0.02 0.02 0.02 0.02 0.02 0.02 0.03 0.03 0.03 0.02 0.02 0.01 0.01
0.01 0.01 0.01 0.01 0.01 0.01 0.02 0.02 0.01 0.01 0.01 0.00 0.01 0.01 0.01 0.01 0.01 0.02 0.02 0.04 0.04 0.06 0.06 0.06 0.05 0.02 0.01 0.03 0.02 0.02 0.02 0.02 0.02 0.02 0.02 0.02 0.03 0.04 0.05 0.04 0.03 0.02 0.01
0.01 0.02 0.02 0.01 0.01 0.01 0.02 0.01 0.01 0.01 0.01 0.01 0.00 0.00 0.00 0.00 0.00 0.00 0.01 0.02 0.03 0.05 0.04 0.02 0.02 0.02 0.02 0.03 0.02 0.02 0.01 0.01 0.02 0.03 0.02 0.03 0.04 0.06 0.05 0.05 0.04 0.02 0.02
0.02 0.03 0.03 0.01 0.01 0.02 0.02 0.01 0.01 0.01 0.01 0.01 0.00 0.00 0.00 0.00 0.00 0.00 0.01 0.03 0.05 0.04 0.03 0.02 0.02 0.02 0.01 0.02 0.03 0.03 0.01 0.01 0.02 0.02 0.02 0.03 0.05 0.05 0.06 0.07 0.06 0.04 0.03
0.02 0.02 0.02 0.01 0.02 0.03 0.04 0.03 0.03 0.02 0.02 0.02 0.01 0.01 0.01 0.00 0.00 0.01 0.01 0.02 0.04 0.04 0.05 0.04 0.02 0.02 0.02 0.02 0.03 0.02 0.02 0.02 0.02 0.02 0.02 0.02 0.04 0.04 0.04 0.06 0.07 0.08 0.06
0.01 0.01 0.01 0.01 0.02 0.02 0.03 0.03 0.03 0.03 0.03 0.02 0.01 0.01 0.01 0.01 0.01 0.01 0.01 0.01 0.03 0.03 0.03 0.04 0.04 0.03 0.02 0.03 0.03 0.02 0.02 0.02 0.02 0.03 0.03 0.02 0.02 0.03 0.05 0.06 0.07 0.07 0.07
0.00 0.00 0.01 0.01 0.01 0.02 0.03 0.03 0.03 0.03 0.03 0.03 0.03 0.02 0.01 0.01 0.02 0.02 0.02 0.02 0.02 0.02 0.02 0.03 0.04 0.03 0.03 0.03 0.02 0.02 0.02 0.02 0.02 0.03 0.03 0.03 0.02 0.02 0.04 0.06 0.06 0.05 0.07
0.00 0.00 0.01 0.01 0.01 0.02 0.03 0.04 0.04 0.05 0.04 0.04 0.05 0.04 0.03 0.04 0.05 0.06 0.05 0.05 0.05 0.04 0.04 0.03 0.03 0.03 0.03 0.03 0.03 0.02 0.01 0.02 0.03 0.02 0.02 0.02 0.03 0.03 0.03 0.04 0.06 0.05 0.06
0.00 0.00 0.00 0.00 0.01 0.01 0.02 0.03 0.05 0.05 0.05 0.06 0.06 0.05 0.05 0.05 0.07 0.08 0.08 0.09 0.08 0.07 0.06 0.06 0.05 0.03 0.02 0.04 0.04 0.03 0.02 0.01 0.03 0.03 0.03 0.03 0.02 0.02 0.04 0.03 0.04 0.04 0.06
0.00 0.00 0.00 0.00 0.01 0.01 0.01 0.01 0.02 0.05 0.07 0.07 0.07 0.06 0.07 0.07 0.09 0.09 0.07 0.09 0.09 0.08 0.08 0.09 0.07 0.05 0.03 0.05 0.06 0.05 0.03 0.02 0.02 0.02 0.03 0.03 0.03 0.03 0.04 0.05 0.04 0.03 0.03
0.00 0.00 0.00 0.00 0.00 0.00 0.01 0.01 0.02 0.03 0.06 0.09 0.06 0.07 0.08 0.08 0.08 0.08 0.08 0.08 0.09 0.07 0.07 0.10 0.09 0.06 0.05 0.07 0.06 0.07 0.05 0.02 0.01 0.01 0.01 0.02 0.03 0.03 0.03 0.04 0.05 0.04 0.03
0.00 0.00 0.00 0.00 0.01 0.01 0.01 0.01 0.01 0.02 0.04 0.08 0.06 0.07 0.07 0.07 0.07 0.08 0.09 0.09 0.07 0.06 0.06 0.08 0.07 0.06 0.06 0.06 0.07 0.07 0.06 0.04 0.02 0.01 0.01 0.01 0.02 0.02 0.02 0.02 0.04 0.04 0.05
0.00 0.00 0.00 0.00 0.01 0.01 0.01 0.01 0.01 0.01 0.02 0.04 0.04 0.04 0.05 0.07 0.05 0.05 0.06 0.09 0.10 0.07 0.05 0.06 0.07 0.06 0.07 0.08 0.09 0.08 0.07 0.05 0.05 0.03 0.02 0.01 0.01 0.01 0.02 0.02 0.02 0.02 0.03
0.00 0.00 0.00 0.00 0.00 0.01 0.02 0.01 0.01 0.01 0.02 0.02 0.02 0.03 0.04 0.06 0.04 0.04 0.05 0.06 0.09 0.08 0.06 0.06 0.07 0.07 0.07 0.08 0.11 0.11 0.09 0.06 0.04 0.04 0.03 0.02 0.02 0.02 0.02 0.02 0.02 0.02 0.03
0.00 0.00 0.00 0.00 0.00 0.00 0.01 0.01 0.01 0.01 0.01 0.02 0.02 0.02 0.03 0.03 0.03 0.03 0.03 0.05 0.08 0.08 0.06 0.04 0.04 0.04 0.04 0.04 0.06 0.07 0.08 0.08 0.08 0.06 0.04 0.03 0.03 0.02 0.02 0.02 0.02 0.02 0.03
MSLP
1012.57 1012.16 1011.98 1012.03 1012.25 1012.56 1012.85 1013.05 1013.13 1013.08 1012.96 1012.84 1012.77 1012.82 1013.00 1013.28 1013.63 1013.98 1014.28 1014.51 1014.65 1014.73 1014.80 1014.88 1015.01 1015.20 1015.42 1015.67 1015.90 1016.12 1016.31 1016.48 1016.66 1016.87 1017.12 1017.40 1017.70 1017.99 1018.25 1018.45 1018.60 1018.70 1018.78
1012.35 1012.02 1011.89 1011.96 1012.18 1012.47 1012.75 1012.95 1013.04 1013.04 1012.98 1012.93 1012.95 1013.08 1013.32 1013.64 1013.99 1014.33 1014.60 1014.78 1014.88 1014.93 1014.98 1015.06 1015.19 1015.37 1015.60 1015.85 1016.08 1016.30 1016.49 1016.67 1016.86 1017.09 1017.35 1017.64 1017.94 1018.23 1018.48 1018.67 1018.81 1018.90 1018.97
1012.21 1011.96 1011.88 1011.98 1012.19 1012.47 1012.73 1012.93 1013.05 1013.08 1013.09 1013.11 1013.20 1013.38 1013.65 1013.97 1014.30 1014.58 1014.79 1014.92 1014.98 1015.01 1015.04 1015.12 1015.26 1015.47 1015.71 1015.97 1016.22 1016.45 1016.66 1016.85 1017.07 1017.31 1017.58 1017.88 1018.18 1018.46 1018.69 1018.87 1018.99 1019.08 1019.15
1012.16 1011.99 1011.96 1012.07 1012.29 1012.55 1012.80 1013.01 1013.14 1013.22 1013.28 1013.35 1013.49 1013.69 1013.95 1014.23 1014.50 1014.72 1014.86 1014.93 1014.95 1014.96 1015.00 1015.11 1015.28 1015.52 1015.79 1016.08 1016.35 1016.60 1016.83 1017.06 1017.29 1017.55 1017.83 1018.13 1018.42 1018.68 1018.89 1019.05 1019.17 1019.25 1019.34
1012.19 1012.09 1012.11 1012.24 1012.45 1012.70 1012.95 1013.15 1013.30 1013.40 1013.50 1013.61 1013.76 1013.95 1014.18 1014.42 1014.62 1014.76 1014.83 1014.85 1014.84 1014.85 1014.92 1015.06 1015.28 1015.56 1015.88 1016.20 1016.51 1016.79 1017.04 1017.29 1017.55 1017.82 1018.11 1018.40 1018.68 1018.92 1019.11 1019.25 1019.35 1019.44 1019.55
1012.29 1012.26 1012.31 1012.46 1012.66 1012.90 1013.13 1013.32 1013.47 1013.59 1013.70 1013.83 1013.98 1014.16 1014.35 1014.52 1014.65 1014.73 1014.75 1014.73 1014.72 1014.75 1014.86 1015.05 1015.32 1015.66 1016.02 1016.38 1016.72 1017.02 1017.30 1017.56 1017.83 1018.12 1018.41 1018.69 1018.95 1019.16 1019.32 1019.45 1019.55 1019.64 1019.77
1012.44 1012.45 1012.54 1012.69 1012.89 1013.11 1013.32 1013.49 1013.63 1013.75 1013.86 1013.98 1014.13 1014.29 1014.44 1014.57 1014.65 1014.68 1014.67 1014.65 1014.65 1014.72 1014.87 1015.12 1015.45 1015.84 1016.24 1016.63 1016.99 1017.30 1017.59 1017.87 1018.14 1018.42 1018.71 1018.98 1019.21 1019.40 1019.55 1019.65 1019.74 1019.84 1019.98
1012.62 1012.67 1012.78 1012.94 1013.13 1013.32 1013.49 1013.63 1013.75 1013.85 1013.95 1014.07 1014.21 1014.36 1014.50 1014.60 1014.66 1014.67 1014.66 1014.65 1014.68 1014.79 1014.99 1015.29 1015.67 1016.10 1016.53 1016.93 1017.29 1017.61 1017.90 1018.17 1018.44 1018.71 1018.99 1019.24 1019.46 1019.63 1019.76 1019.85 1019.93 1020.03 1020.17
1012.81 1012.89 1013.02 1013.19 1013.36 1013.52 1013.65 1013.75 1013.83 1013.90 1013.99 1014.11 1014.25 1014.40 1014.54 1014.65 1014.71 1014.74 1014.74 1014.75 1014.82 1014.97 1015.22 1015.56 1015.97 1016.41 1016.85 1017.25 1017.61 1017.91 1018.19 1018.44 1018.70 1018.96 1019.22 1019.47 1019.67 1019.83 1019.94 1020.02 1020.09 1020.18 1020.32
1013.01 1013.12 1013.28 1013.45 1013.61 1013.74 1013.82 1013.87 1013.91 1013.95 1014.02 1014.14 1014.28 1014.45 1014.62 1014.75 1014.84 1014.88 1014.91 1014.96 1015.06 1015.24 1015.51 1015.87 1016.29 1016.74 1017.17 1017.56 1017.89 1018.18 1018.43 1018.66 1018.90 1019.15 1019.40 1019.63 1019.84 1019.99 1020.10 1020.17 1020.23 1020.31 1020.43
1013.20 1013.36 1013.54 1013.72 1013.87 1013.97 1014.02 1014.02 1014.02 1014.03 1014.08 1014.19 1014.36 1014.55 1014.75 1014.91 1015.04 1015.12 1015.18 1015.25 1015.36 1015.56 1015.84 1016.20 1016.61 1017.04 1017.45 1017.82 1018.12 1018.38 1018.60 1018.81 1019.03 1019.26 1019.50 1019.73 1019.94 1020.10 1020.22 1020.29 1020.35 1020.42 1020.52
1013.37 1013.58 1013.81 1014.01 1014.16 1014.24 1014.25 1014.22 1014.18 1014.16 1014.21 1014.32 1014.50 1014.73 1014.95 1015.16 1015.31 1015.42 1015.50 1015.59 1015.71 1015.90 1016.16 1016.50 1016.89 1017.30 1017.68 1018.01 1018.29 1018.51 1018.70 1018.89 1019.08 1019.30 1019.53 1019.77 1019.98 1020.16 1020.29 1020.38 1020.45 1020.51 1020.59
1013.52 1013.78 1014.05 1014.28 1014.44 1014.52 1014.52 1014.46 1014.40 1014.37 1014.42 1014.54 1014.74 1014.98 1015.24 1015.47 1015.65 1015.78 1015.87 1015.96 1016.07 1016.24 1016.48 1016.78 1017.14 1017.50 1017.85 1018.15 1018.39 1018.59 1018.75 1018.90 1019.07 1019.27 1019.50 1019.73 1019.96 1020.17 1020.33 1020.44 1020.52 1020.58 1020.65
1013.61 1013.92 1014.24 1014.50 1014.69 1014.78 1014.78 1014.73 1014.68 1014.65 1014.70 1014.84 1015.05 1015.31 1015.58 1015.83 1016.03 1016.17 1016.27 1016.34 1016.44 1016.57 1016.77 1017.04 1017.35 1017.68 1017.98 1018.25 1018.46 1018.63 1018.76 1018.88 1019.02 1019.19 1019.40 1019.64 1019.88 1020.11 1020.30 1020.45 1020.55 1020.63 1020.69
1013.62 1013.98 1014.33 1014.63 1014.85 1014.98 1015.02 1015.00 1014.97 1014.97 1015.04 1015.19 1015.41 1015.68 1015.96 1016.22 1016.43 1016.57 1016.66 1016.73 1016.80 1016.91 1017.07 1017.29 1017.56 1017.84 1018.11 1018.34 1018.52 1018.65 1018.75 1018.84 1018.94 1019.08 1019.27 1019.49 1019.74 1019.98 1020.20 1020.38 1020.52 1020.62 1020.69
1013.56 1013.94 1014.31 1014.65 1014.91 1015.09 1015.19 1015.23 1015.25 1015.29 1015.39 1015.55 1015.78 1016.05 1016.33 1016.59 1016.80 1016.95 1017.04 1017.10 1017.16 1017.24 1017.37 1017.55 1017.77 1018.01 1018.24 1018.44 1018.59 1018.68 1018.75 1018.79 1018.85 1018.95 1019.10 1019.29 1019.52 1019.77 1020.01 1020.22 1020.39 1020.52 1020.61
1013.45 1013.82 1014.20 1014.56 1014.87 1015.11 1015.28 1015.40 1015.49 1015.58 1015.71 1015.89 1016.12 1016.38 1016.65 1016.90 1017.11 1017.27 1017.37 1017.44 1017.50 1017.58 1017.68 1017.83 1018.01 1018.21 1018.40 1018.56 1018.67 1018.73 1018.76 1018.77 1018.78 1018.82 1018.92 1019.07 1019.26 1019.49 1019.73 1019.95 1020.14 1020.29 1020.40
1013.33 1013.67 1014.04 1014.41 1014.76 1015.07 1015.32 1015.52 1015.68 1015.84 1016.00 1016.18 1016.40 1016.64 1016.89 1017.13 1017.34 1017.52 1017.64 1017.74 1017.81 1017.89 1017.99 1018.11 1018.25 1018.41 1018.56 1018.69 1018.77 1018.81 1018.80 1018.77 1018.73 1018.72 1018.75 1018.83 1018.97 1019.15 1019.36 1019.57 1019.77 1019.94 1020.06
1013.24 1013.54 1013.88 1014.26 1014.64 1015.00 1015.33 1015.61 1015.85 1016.05 1016.23 1016.41 1016.61 1016.82 1017.04 1017.26 1017.48 1017.67 1017.83 1017.96 1018.07 1018.17 1018.26 1018.37 1018.49 1018.61 1018.73 1018.83 1018.89 1018.90 1018.87 1018.81 1018.73 1018.66 1018.62 1018.62 1018.68 1018.79 1018.94 1019.12 1019.29 1019.45 1019.58
1013.22 1013.47 1013.79 1014.16 1014.56 1014.97 1015.36 1015.71 1016.00 1016.24 1016.43 1016.59 1016.75 1016.91 1017.10 1017.30 1017.51 1017.73 1017.92 1018.10 1018.25 1018.37 1018.48 1018.58 1018.68 1018.78 1018.87 1018.95 1019.00 1019.01 1018.97 1018.89 1018.78 1018.66 1018.55 1018.47 1018.43 1018.45 1018.51 1018.62 1018.75 1018.88 1019.00
1013.28 1013.50 1013.79 1014.15 1014.56 1015.01 1015.44 1015.84 1016.17 1016.42 1016.60 1016.73 1016.84 1016.95 1017.08 1017.25 1017.46 1017.69 1017.93 1018.15 1018.34 1018.50 1018.62 1018.72 1018.81 1018.89 1018.97 1019.04 1019.09 1019.11 1019.09 1019.01 1018.89 1018.73 1018.55 1018.38 1018.24 1018.15 1018.11 1018.12 1018.17 1018.25 1018.34
1013.40 1013.60 1013.87 1014.22 1014.63 1015.10 1015.56 1015.99 1016.34 1016.60 1016.76 1016.85 1016.89 1016.94 1017.02 1017.16 1017.35 1017.59 1017.86 1018.11 1018.34 1018.53 1018.67 1018.77 1018.85 1018.92 1018.99 1019.07 1019.14 1019.19 1019.20 1019.15 1019.03 1018.85 1018.62 1018.38 1018.13 1017.92 1017.76 1017.66 1017.62 1017.63 1017.67
1013.52 1013.73 1013.99 1014.32 1014.74 1015.21 1015.69 1016.13 1016.49 1016.75 1016.89 1016.93 1016.93 1016.91 1016.94 1017.04 1017.21 1017.45 1017.72 1018.01 1018.26 1018.46 1018.61 1018.71 1018.79 1018.85 1018.93 1019.03 1019.13 1019.22 1019.27 1019.26 1019.17 1018.99 1018.73 1018.41 1018.08 1017.76 1017.48 1017.27 1017.13 1017.05 1017.03
1013.58 1013.80 1014.06 1014.38 1014.79 1015.26 1015.75 1016.21 1016.58 1016.84 1016.96 1016.98 1016.93 1016.87 1016.85 1016.91 1017.05 1017.28 1017.55 1017.84 1018.10 1018.31 1018.45 1018.55 1018.61 1018.68 1018.76 1018.88 1019.01 1019.15 1019.26 1019.30 1019.25 1019.08 1018.80 1018.45 1018.04 1017.63 1017.25 1016.93 1016.70 1016.55 1016.47
1013.51 1013.75 1014.01 1014.33 1014.73 1015.20 1015.69 1016.16 1016.55 1016.82 1016.95 1016.96 1016.90 1016.81 1016.76 1016.78 1016.89 1017.09 1017.35 1017.62 1017.87 1018.07 1018.20 1018.28 1018.33 1018.39 1018.48 1018.61 1018.78 1018.96 1019.12 1019.22 1019.21 1019.06 1018.79 1018.42 1017.97 1017.49 1017.04 1016.65 1016.34 1016.13 1016.01
1013.30 1013.56 1013.81 1014.12 1014.51 1014.97 1015.47 1015.95 1016.37 1016.66 1016.82 1016.85 1016.80 1016.71 1016.64 1016.64 1016.72 1016.89 1017.12 1017.36 1017.58 1017.75 1017.86 1017.92 1017.95 1017.99 1018.08 1018.22 1018.41 1018.63 1018.83 1018.97 1019.01 1018.90 1018.65 1018.28 1017.82 1017.32 1016.83 1016.40 1016.05 1015.80 1015.65
Thickness
5762 5765 5765 5764 5764 5763 5764 5764 5765 5764 5764 5764 5763 5763 5763 5763 5763 5763 5762 5762 5761 5760 5760 5759 5758 5757 5756 5755 5753 5752 5750 5749 5748 5746 5745 5744 5742 5741 5740 5739 5738 5737 5736
5766 5765 5764 5764 5763 5762 5762 5763 5763 5762 5762 5762 5761 5761 5761 5761 5761 5761 5760 5760 5760 5759 5758 5757 5756 5755 5754 5753 5752 5750 5749 5747 5746 5745 5744 5742 5741 5740 5739 5738 5736 5735 5735
5766 5765 5763 5762 5761 5761 5760 5760 5760 5760 5760 5759 5759 5759 5760 5759 5759 5759 5759 5758 5758 5757 5756 5756 5755 5753 5752 5751 5750 5749 5747 5746 5744 5743 5742 5741 5740 5739 5738 5737 5736 5735 5734
5765 5763 5762 5761 5760 5759 5759 5758 5758 5758 5758 5757 5757 5757 5758 5758 5758 5758 5757 5757 5756 5756 5755 5754 5753 5752 5751 5750 5748 5747 5746 5745 5743 5742 5741 5740 5739 5738 5737 5736 5735 5734 5733
5764 5762 5761 5759 5758 5758 5757 5756 5756 5756 5756 5756 5756 5756 5756 5756 5756 5756 5756 5755 5755 5754 5754 5753 5752 5751 5749 5748 5747 5746 5745 5744 5742 5741 5740 5739 5738 5737 5736 5735 5734 5733 5732
5763 5761 5759 5758 5757 5756 5755 5755 5754 5754 5754 5754 5754 5754 5754 5754 5754 5754 5754 5753 5753 5753 5752 5751 5750 5749 5748 5746 5745 5745 5744 5743 5741 5740 5739 5738 5737 5736 5736 5735 5734 5733 5732
5761 5760 5758 5757 5756 5755 5754 5753 5753 5752 5753 5752 5752 5752 5752 5752 5752 5752 5752 5752 5752 5751 5751 5750 5749 5748 5746 5745 5744 5743 5743 5741 5740 5739 5738 5737 5737 5736 5735 5734 5733 5732 5731
5761 5759 5757 5756 5755 5754 5753 5752 5752 5751 5751 5751 5751 5751 5750 5750 5750 5750 5750 5750 5750 5750 5749 5748 5747 5746 5745 5744 5743 5742 5742 5740 5739 5738 5737 5737 5736 5735 5735 5734 5733 5732 5731
5760 5757 5756 5755 5754 5753 5752 5752 5751 5750 5750 5750 5749 5749 5749 5749 5748 5749 5749 5749 5749 5749 5748 5747 5746 5745 5744 5743 5742 5741 5741 5740 5739 5738 5737 5736 5735 5735 5734 5733 5733 5732 5731
5759 5757 5755 5754 5753 5752 5751 5751 5750 5750 5749 5748 5748 5748 5747 5747 5747 5747 5747 5747 5747 5747 5747 5746 5745 5744 5743 5742 5741 5741 5740 5739 5738 5737 5737 5736 5735 5735 5734 5733 5733 5732 5731
5757 5756 5755 5754 5753 5751 5751 5750 5749 5749 5748 5747 5747 5747 5746 5746 5746 5746 5746 5746 5746 5746 5746 5745 5744 5744 5742 5741 5741 5740 5739 5738 5738 5737 5736 5736 5735 5735 5734 5733 5733 5732 5731
5756 5756 5755 5754 5752 5751 5750 5749 5748 5748 5747 5746 5746 5746 5745 5745 5744 5745 5745 5745 5745 5745 5745 5744 5744 5743 5742 5741 5740 5739 5739 5738 5737 5737 5737 5736 5736 5735 5735 5734 5733 5732 5731
5760 5758 5757 5755 5753 5751 5750 5749 5747 5747 5746 5745 5745 5745 5744 5744 5743 5743 5743 5744 5744 5744 5743 5743 5742 5741 5741 5740 5739 5739 5739 5738 5738 5737 5737 5737 5736 5736 5735 5734 5733 5733 5732
5762 5760 5759 5757 5754 5752 5750 5749 5748 5747 5746 5745 5745 5745 5744 5743 5743 5742 5742 5742 5742 5742 5742 5742 5741 5741 5740 5739 5739 5739 5739 5739 5738 5738 5738 5737 5737 5736 5736 5735 5734 5733 5732
5765 5763 5762 5760 5757 5754 5751 5750 5749 5747 5746 5746 5745 5744 5744 5743 5742 5742 5741 5741 5741 5741 5741 5741 5740 5740 5740 5739 5739 5739 5739 5739 5739 5739 5738 5738 5738 5737 5736 5735 5734 5733 5732
5769 5767 5765 5762 5759 5756 5753 5751 5750 5749 5747 5746 5745 5745 5744 5743 5742 5742 5741 5741 5740 5740 5740 5740 5740 5740 5739 5739 5739 5739 5740 5740 5740 5739 5739 5739 5739 5738 5737 5736 5735 5734 5732
5775 5772 5769 5766 5762 5759 5756 5754 5752 5750 5749 5748 5747 5746 5745 5744 5743 5742 5741 5741 5740 5740 5740 5740 5739 5739 5739 5739 5739 5740 5740 5740 5740 5740 5740 5740 5739 5739 5738 5737 5736 5735 5733
5780 5776 5773 5770 5766 5762 5759 5757 5755 5753 5751 5749 5748 5747 5746 5745 5744 5743 5741 5741 5740 5740 5739 5739 5739 5738 5738 5738 5739 5740 5741 5741 5741 5741 5740 5740 5740 5739 5739 5738 5737 5736 5734
5785 5781 5776 5773 5769 5765 5762 5759 5757 5754 5752 5751 5749 5748 5747 5745 5744 5742 5742 5741 5740 5740 5739 5739 5739 5738 5737 5738 5739 5740 5741 5741 5741 5741 5741 5741 5740 5740 5739 5739 5738 5737 5735
5789 5785 5780 5776 5773 5768 5764 5761 5758 5756 5754 5752 5750 5749 5748 5747 5745 5743 5742 5742 5740 5740 5739 5739 5738 5738 5737 5737 5738 5739 5740 5741 5741 5741 5742 5741 5741 5740 5740 5739 5738 5737 5736
5791 5786 5782 5778 5775 5770 5765 5761 5757 5755 5754 5753 5752 5751 5750 5748 5747 5745 5743 5742 5741 5740 5739 5738 5737 5736 5736 5737 5734 5734 5737 5740 5740 5741 5741 5741 5741 5740 5739 5739 5738 5737 5737
5793 5789 5785 5781 5777 5774 5770 5766 5762 5759 5757 5756 5754 5753 5751 5750 5748 5746 5745 5743 5742 5741 5739 5739 5737 5735 5735 5735 5732 5728 5727 5731 5737 5741 5740 5740 5740 5739 5739 5738 5738 5737 5737
5796 5793 5790 5785 5781 5777 5773 5768 5764 5761 5758 5756 5755 5754 5753 5752 5750 5749 5747 5746 5744 5742 5740 5739 5738 5736 5733 5734 5734 5729 5723 5722 5728 5735 5737 5738 5738 5738 5738 5738 5738 5737 5736
5802 5799 5794 5789 5784 5780 5776 5771 5766 5761 5757 5757 5756 5756 5755 5753 5752 5750 5749 5747 5745 5743 5741 5740 5739 5737 5734 5731 5732 5732 5730 5729 5724 5725 5731 5735 5736 5736 5736 5737 5737 5736 5736
5807 5802 5798 5792 5787 5783 5778 5774 5769 5765 5763 5761 5759 5757 5755 5754 5753 5752 5750 5748 5746 5744 5742 5741 5739 5737 5735 5733 5731 5730 5729 5727 5726 5722 5723 5728 5731 5733 5734 5735 5735 5735 5735
5810 5805 5800 5795 5790 5786 5781 5777 5772 5768 5765 5762 5759 5757 5756 5754 5754 5753 5751 5749 5747 5745 5743 5741 5740 5738 5736 5734 5732 5730 5728 5726 5724 5722 5721 5722 5724 5729 5732 5733 5733 5733 5734